Regional Weather Roundup
Issued by NWS

Home | Current Version | Previous Version | Text Only | Print | Product List | Glossary Off
Versions: 1 2 3 4 5 6 7 8 9 10 11 12 13 14 15 16 17 18 19 20 21 22 23 24 25 26 27 28 29 30 31 32 33 34 35 36 37 38 39 40 41 42 43 44 45 46 47 48 49 50

000
ASUS43 KMPX 220510
RWRMN
WEATHER ROUNDUP FOR MINNESOTA
NATIONAL WEATHER SERVICE TWIN CITIES/CHANHASSEN MN
1200 AM CDT FRI AUG 22 2014


NOTE: "FAIR" INDICATES FEW OR NO CLOUDS BELOW 12,000 FEET WITH NO
SIGNIFICANT WEATHER AND/OR OBSTRUCTIONS TO VISIBILITY. N/A MEANS
CURRENT SKY AND/OR WEATHER CONDITIONS ARE NOT AVAILABLE.

MNZ060>063-068>070-220600-
   Twin Cities Metro

CITY           SKY/WX    TMP DP  RH WIND       PRES   REMARKS
TWIN CITIES    PTCLDY    74  73  97 NW5       29.84R
ST PAUL        PTCLDY    73  72  96 NW7       29.84R
CRYSTAL        CLOUDY    73  70  90 NW5       29.85R
BLAINE         MOCLDY    72  72 100 CALM      29.85R FOG
LAKEVILLE      CLEAR     73  72  94 W3        29.85R
EDEN PRAIRIE   CLEAR     73  72  96 NW5       29.84R
SOUTH ST PAUL  CLEAR     76  74  93 CALM      29.84R
LAKE ELMO      FAIR      72  72 100 NW6       29.85R FOG
$$
MNZ001>005-007-008-013>017-022>024-027-028-220600-
   Northwest Minnesota

CITY           SKY/WX    TMP DP  RH WIND       PRES   REMARKS
BEMIDJI        CLOUDY    67  66  94 E3        29.90S
HALLOCK        HVY RAIN  66  66 100 NE6       29.89S
ROSEAU         MOCLDY    66  61  82 NE3       29.91S
WARROAD        CLOUDY    68  64  88 E7        29.92S
THIEF RVR FALL CLOUDY    70  68  94 CALM      29.89S
CROOKSTON      CLOUDY    70  70 100 SE5       29.88S
FOSSTON        PTCLDY    64  61  88 CALM      29.90S
DETROIT LAKES  CLOUDY    70  68  94 S3        29.90F
MOORHEAD       MOCLDY    70  70 100 CALM      29.88S FOG
PARK RAPIDS    CLOUDY    68  66  93 S3        29.90S
MAHNOMEN       MOCLDY    67  67  98 E3        29.88S
$$
MNZ006-009>011-018-025>026-220600-
   North Central Minnesota

CITY           SKY/WX    TMP DP  RH WIND       PRES   REMARKS
BAUDETTE       CLOUDY    67  63  87 SE3       29.92R
FLAG ISLAND    CLOUDY    66  64  94 CALM      29.92R
INTL FALLS     CLOUDY    64  60  87 SE5       29.92S
WASKISH        CLOUDY    66  64  94 CALM      29.92R
BIG FORK       CLOUDY    66  63  88 E5        29.92S
LONGVILLE      CLOUDY    66  64  94 CALM      29.90S
GRAND RAPIDS   CLOUDY    64  61  88 E5        29.91S
CRANE LAKE     CLOUDY    63  61  94 CALM      29.95S
ORR            CLOUDY    63  57  82 CALM      29.91F
COOK           CLOUDY    64  61  88 CALM      29.94S
WALKER         CLOUDY    67  65  94 CALM      29.91R
$$
MNZ012-019>021-037-220600-
   Northeast Minnesota

CITY           SKY/WX    TMP DP  RH WIND       PRES   REMARKS
DULUTH         DRIZZLE   63  60  90 E6        29.91F FOG
ELY            CLOUDY    63  57  82 CALM      29.95S
HIBBING        CLOUDY    66  59  78 E5        29.92F
EVELETH        CLOUDY    63  59  88 E5        29.93S
DULUTH HARBOR  DRIZZLE   63  61  94 NE18      29.91S
TWO HARBORS    CLOUDY    61  55  82 NE9       29.90F HAZE
SILVER BAY     DRIZZLE   61  61 100 NE7       29.92S
GRAND MARAIS     N/A     62  60  93 NE7       29.93F
G MARAIS ARPRT CLOUDY    59  55  88 NE5       29.98S
$$
MNZ029>031-032-039>041-046>048-054>057-064-220600-
   West Central Minnesota

CITY           SKY/WX    TMP DP  RH WIND       PRES   REMARKS
FERGUS FALLS   CLEAR     70  66  88 CALM      29.88R FOG
WHEATON        CLEAR     66  64  94 CALM      29.90  FOG
MORRIS         CLEAR     70  68  94 CALM      29.88S FOG
ALEXANDRIA     PTCLDY    68  66  93 CALM      29.91R FOG
ELBOW LAKE     FAIR      69  68  97 E5        29.89R
WADENA         CLOUDY    68  66  94 CALM      29.90R FOG
GLENWOOD       MOCLDY    66  66 100 NE3       29.91R FOG
APPLETON       FOG       70  66  88 CALM      29.88S VSB 1/4
BENSON         FOG       68  66  94 CALM      29.89R VSB 1/4
ORTONVILLE     CLEAR     72  68  88 CALM      29.89S
MADISON        CLEAR     72  70  94 CALM      29.89R FOG
WILLMAR        FOG       72  70  94 CALM      29.90R VSB 3/4
$$
MNZ033>034-036-042>043-049>051-058-059-220600-
   Central Minnesota

CITY           SKY/WX    TMP DP  RH WIND       PRES   REMARKS
ST CLOUD       MOCLDY    73  70  90 CALM      29.87R
SAUK CENTRE    FAIR      69  69  98 CALM      29.90R
PAYNESVILLE    CLOUDY    68  68 100 N3        29.89S FOG
AITKIN         CLOUDY    66  61  82 CALM      29.89S HAZE
PINE RIVER     CLOUDY    66  66 100 CALM      29.93S FOG
BRAINERD       CLOUDY    65  65 100 VRB5      29.89F FOG
STAPLES        CLOUDY    66  66 100 CALM      29.90S FOG
LONG PRAIRIE   CLOUDY    70  68  94 CALM      29.90S
LITTLE FALLS   CLOUDY    68  64  88 CALM      29.89S FOG
LITCHFIELD     MOCLDY    72  72 100 CALM      29.89R FOG
BUFFALO        CLOUDY    73  70  91 N3        29.88R
MAPLE LAKE     CLOUDY    73  73  97 CALM      29.88R FOG
$$
MNZ037-044-045-052-053-220600-
   East Central Minnesota

CITY           SKY/WX    TMP DP  RH WIND       PRES   REMARKS
PRINCETON      CLOUDY    72  70  94 N6        29.87R
MORA           DRIZZLE   63  63 100 CALM      29.90S
CAMBRIDGE      MOCLDY    73  64  73 NW3       29.85R
RUSH CITY      CLOUDY    69  67  93 N6        29.87R
MOOSE LAKE     CLOUDY    61  59  94 NE6       29.89S FOG
HINCKLEY       CLOUDY    63  63 100 N7        29.89R
CLOQUET        CLOUDY    63  61  94 E7        29.91S FOG
MCGREGOR       CLOUDY    63  61  94 NE5       29.90F
$$
MNZ071>073-080-081-089-090-097-098-220600-
   Southwest Minnesota

CITY           SKY/WX    TMP DP  RH WIND       PRES   REMARKS
MONTEVIDEO     CLEAR     72  66  83 CALM      29.89S FOG
GRANITE FALLS  CLEAR     68  68 100 W5        29.89S FOG
CANBY          PTCLDY    70  67  92 CALM      29.90S
MARSHALL       PTCLDY    70  64  83 NW8         N/A
REDWOOD FALLS  CLEAR     74  72  93 CALM      29.87R FOG
OLIVIA           N/A     70  68  94 CALM      29.87R FOG
PIPESTONE      CLEAR     72  66  83 CALM      29.92S
WINDOM         CLEAR     72  66  83 CALM      29.89S
WORTHINGTON    CLEAR     68  10  10 NW3       29.91S
JACKSON        CLEAR     68  64  88 CALM      29.90R
TRACY          PTCLDY    74  69  85 W5        29.89S
SLAYTON        CLEAR     69  68  96 CALM      29.92S
$$
MNZ065>067-074>077-082>085-091>093-220600-
   South Central Minnesota

CITY           SKY/WX    TMP DP  RH WIND       PRES   REMARKS
MANKATO        CLOUDY    75  72  88 CALM      29.86R
NEW ULM        CLEAR     73  73 100 CALM      29.87R FOG
ST JAMES       PTCLDY    72  68  88 CALM      29.88S
FAIRMONT       CLEAR     70  64  83 MISG      29.88R
GLENCOE        CLEAR     72  69  90 CALM      29.87R FOG
FARIBAULT      MOCLDY    79  72  78 SW3       29.86R
OWATONNA       PTCLDY    75  72  88 S5        29.87R
WASECA         CLEAR     72  66  83 CALM      29.88S HAZE
ALBERT LEA     CLEAR     77  73  88 SW3       29.88R
$$
MNZ078>079-086>088-094>096-220600-
   Southeast Minnesota

CITY           SKY/WX    TMP DP  RH WIND       PRES   REMARKS
ROCHESTER      PTCLDY    73  71  93 S8        29.89R
RED WING       PTCLDY    79  73  83 CALM      29.83R
STANTON        PTCLDY    75  71  87 S3        29.84R
DODGE CENTER   CLEAR     75  73  94 S8        29.88R
WINONA         CLEAR     73  70  88 CALM      29.87S
AUSTIN         PTCLDY    73  72  94 S3        29.88R
PRESTON        PTCLDY    72  72 100 S7        29.90S
$$
ABBREVIATIONS USED IN REMARKS
   TC - TEMPERATURES IN CELSIUS
  WCI - WIND CHILL INDEX
   HX - HEAT INDEX
  VSB - VISIBILITY
$$



USA.gov is the U.S. government's official web portal to all federal, state and local government web resources and services.